Terug naar catalogus

N-1 DEB

ActiefLEO
NORAD 13510·DEBRIS·🇯🇵 Japan

Gelanceerd Sep 3, 1982 vanaf Tanegashima Space Center

Loading…

Volgende Passages (komende 24 uur)

TLE

VersSource: Space-Track

Epoch: Sep 14, 2026, 02:39 UTC

1 13510U 82087C   26257.11089253  .00000592  00000-0  87595-3 0  9999
2 13510  44.5744 266.3889 0158013 104.4402 304.8703 13.59424321623375

Volg N-1 DEB in realtime met AllMySat

Download on the App Store